Time,TemperatureF,DewpointF,PressureIn,WindDirection,WindDirectionDegrees,WindSpeedMPH,WindSpeedGustMPH,Humidity,HourlyPrecipIn,Conditions,Clouds,dailyrainin,SolarRadiationWatts/m^2,SoftwareType,DateUTC
2013-01-15 00:22:00,55.0,-24.0,-100.00,East,89,3.0,10.0,3,0.00,,,0.00,0.000000,,2013-01-15 10:22:00,
2013-01-15 00:32:00,55.0,-24.0,-100.00,East,89,3.0,10.0,3,0.00,,,0.00,0.000000,,2013-01-15 10:32:00,
2013-01-15 00:42:00,55.0,-24.0,-100.00,East,89,3.0,10.0,3,0.00,,,0.00,0.000000,,2013-01-15 10:42:00,
2013-01-15 00:52:00,55.0,-24.0,-100.00,East,89,3.0,10.0,3,0.00,,,0.00,0.000000,,2013-01-15 10:52:00,
2013-01-15 01:12:00,58.0,-22.0,-100.00,South,172,9.0,9.0,3,0.00,,,0.00,0.000000,,2013-01-15 11:12:00,
2013-01-15 01:22:00,58.0,-22.0,-100.00,South,172,9.0,9.0,3,0.00,,,0.00,0.000000,,2013-01-15 11:22:00,
2013-01-15 01:32:00,58.0,-22.0,-100.00,South,172,9.0,9.0,3,0.00,,,0.00,0.000000,,2013-01-15 11:32:00,
2013-01-15 01:42:00,58.0,-22.0,-100.00,South,172,9.0,9.0,3,0.00,,,0.00,0.000000,,2013-01-15 11:42:00,
2013-01-15 01:52:00,58.0,-22.0,-100.00,South,172,9.0,9.0,3,0.00,,,0.00,0.000000,,2013-01-15 11:52:00,
2013-01-15 02:22:00,56.0,-24.0,-100.00,SE,132,7.0,14.0,3,0.00,,,0.00,0.000000,,2013-01-15 12:22:00,
2013-01-15 02:32:00,56.0,-24.0,-100.00,SE,132,7.0,14.0,3,0.00,,,0.00,0.000000,,2013-01-15 12:32:00,
2013-01-15 02:42:00,56.0,-24.0,-100.00,SE,132,7.0,14.0,3,0.00,,,0.00,0.000000,,2013-01-15 12:42:00,
2013-01-15 02:53:00,56.0,-24.0,-100.00,SE,132,7.0,14.0,3,0.00,,,0.00,0.000000,,2013-01-15 12:53:00,
2013-01-15 03:23:00,57.0,-23.0,-100.00,SSW,195,4.0,11.0,3,0.00,,,0.00,0.000000,,2013-01-15 13:23:00,
2013-01-15 03:33:00,57.0,-23.0,-100.00,SSW,195,4.0,11.0,3,0.00,,,0.00,0.000000,,2013-01-15 13:33:00,
2013-01-15 03:42:00,57.0,-23.0,-100.00,SSW,195,4.0,11.0,3,0.00,,,0.00,0.000000,,2013-01-15 13:42:00,
2013-01-15 03:53:00,57.0,-23.0,-100.00,SSW,195,4.0,11.0,3,0.00,,,0.00,0.000000,,2013-01-15 13:53:00,
2013-01-15 04:23:00,57.0,-23.0,-100.00,NNE,14,2.0,9.0,3,0.00,,,0.00,0.000000,,2013-01-15 14:23:00,
2013-01-15 04:33:00,57.0,-23.0,-100.00,NNE,14,2.0,9.0,3,0.00,,,0.00,0.000000,,2013-01-15 14:33:00,
2013-01-15 04:42:00,57.0,-23.0,-100.00,NNE,14,2.0,9.0,3,0.00,,,0.00,0.000000,,2013-01-15 14:42:00,
2013-01-15 04:53:00,57.0,-23.0,-100.00,NNE,14,2.0,9.0,3,0.00,,,0.00,0.000000,,2013-01-15 14:53:00,
2013-01-15 05:23:00,57.0,-23.0,-100.00,SE,134,4.0,4.0,3,0.00,,,0.00,0.000000,,2013-01-15 15:23:00,
2013-01-15 05:33:00,57.0,-23.0,-100.00,SE,134,4.0,4.0,3,0.00,,,0.00,0.000000,,2013-01-15 15:33:00,
2013-01-15 05:43:00,57.0,-23.0,-100.00,SE,134,4.0,4.0,3,0.00,,,0.00,0.000000,,2013-01-15 15:43:00,
2013-01-15 05:52:00,57.0,-23.0,-100.00,SE,134,4.0,4.0,3,0.00,,,0.00,0.000000,,2013-01-15 15:52:00,
2013-01-15 06:22:00,56.0,-24.0,-100.00,SE,130,5.0,5.0,3,0.00,,,0.00,0.000000,,2013-01-15 16:22:00,
2013-01-15 06:33:00,56.0,-24.0,-100.00,SE,130,5.0,5.0,3,0.00,,,0.00,0.000000,,2013-01-15 16:33:00,
2013-01-15 06:42:00,56.0,-24.0,-100.00,SE,130,5.0,5.0,3,0.00,,,0.00,0.000000,,2013-01-15 16:42:00,
2013-01-15 06:53:00,56.0,-24.0,-100.00,SE,130,5.0,5.0,3,0.00,,,0.00,0.000000,,2013-01-15 16:53:00,
2013-01-15 07:22:00,59.0,-22.0,-100.00,ESE,120,7.0,14.0,3,0.00,,,0.00,0.000000,,2013-01-15 17:22:00,
2013-01-15 07:33:00,59.0,-22.0,-100.00,ESE,120,7.0,14.0,3,0.00,,,0.00,0.000000,,2013-01-15 17:33:00,
2013-01-15 07:42:00,59.0,-22.0,-100.00,ESE,120,7.0,14.0,3,0.00,,,0.00,0.000000,,2013-01-15 17:42:00,
2013-01-15 07:53:00,59.0,-22.0,-100.00,ESE,120,7.0,14.0,3,0.00,,,0.00,0.000000,,2013-01-15 17:53:00,
2013-01-15 08:23:00,60.0,-21.0,-100.00,North,8,4.0,12.0,3,0.00,,,0.00,25.000000,,2013-01-15 18:23:00,
2013-01-15 08:33:00,60.0,-21.0,-100.00,North,8,4.0,12.0,3,0.00,,,0.00,25.000000,,2013-01-15 18:33:00,
2013-01-15 08:42:00,60.0,-21.0,-100.00,North,8,4.0,12.0,3,0.00,,,0.00,25.000000,,2013-01-15 18:42:00,
2013-01-15 08:53:00,60.0,-21.0,-100.00,North,8,4.0,12.0,3,0.00,,,0.00,25.000000,,2013-01-15 18:53:00,
2013-01-15 09:22:00,68.0,-16.0,-100.00,NNW,342,2.0,7.0,3,0.00,,,0.00,298.000000,,2013-01-15 19:22:00,
2013-01-15 09:33:00,68.0,-16.0,-100.00,NNW,342,2.0,7.0,3,0.00,,,0.00,298.000000,,2013-01-15 19:33:00,
2013-01-15 09:42:00,68.0,-16.0,-100.00,NNW,342,2.0,7.0,3,0.00,,,0.00,298.000000,,2013-01-15 19:42:00,
2013-01-15 09:52:00,68.0,-16.0,-100.00,NNW,342,2.0,7.0,3,0.00,,,0.00,298.000000,,2013-01-15 19:52:00,
2013-01-15 10:23:00,64.0,-18.0,-100.00,NW,309,9.0,14.0,3,0.00,,,0.00,346.000000,,2013-01-15 20:23:00,
2013-01-15 10:33:00,64.0,-18.0,-100.00,NW,309,9.0,14.0,3,0.00,,,0.00,346.000000,,2013-01-15 20:33:00,
2013-01-15 10:43:00,64.0,-18.0,-100.00,NW,309,9.0,14.0,3,0.00,,,0.00,346.000000,,2013-01-15 20:43:00,
2013-01-15 10:52:00,64.0,-18.0,-100.00,NW,309,9.0,14.0,3,0.00,,,0.00,346.000000,,2013-01-15 20:52:00,
2013-01-15 11:22:00,63.0,-19.0,-100.00,North,352,7.0,17.0,3,0.00,,,0.00,680.000000,,2013-01-15 21:22:00,
2013-01-15 11:33:00,63.0,-19.0,-100.00,North,352,7.0,17.0,3,0.00,,,0.00,680.000000,,2013-01-15 21:33:00,
2013-01-15 11:43:00,63.0,-19.0,-100.00,North,352,7.0,17.0,3,0.00,,,0.00,680.000000,,2013-01-15 21:43:00,
2013-01-15 11:52:00,63.0,-19.0,-100.00,North,352,7.0,17.0,3,0.00,,,0.00,680.000000,,2013-01-15 21:52:00,
2013-01-15 12:22:00,72.0,-13.0,-100.00,West,274,6.0,14.0,3,0.00,,,0.00,665.000000,,2013-01-15 22:22:00,
2013-01-15 12:33:00,72.0,-13.0,-100.00,West,274,6.0,14.0,3,0.00,,,0.00,665.000000,,2013-01-15 22:33:00,
2013-01-15 12:42:00,72.0,-13.0,-100.00,West,274,6.0,14.0,3,0.00,,,0.00,665.000000,,2013-01-15 22:42:00,
2013-01-15 12:52:00,72.0,-13.0,-100.00,West,274,6.0,14.0,3,0.00,,,0.00,665.000000,,2013-01-15 22:52:00,
2013-01-15 13:22:00,66.0,-17.0,-100.00,NW,324,11.0,18.0,3,0.00,,,0.00,828.000000,,2013-01-15 23:22:00,
2013-01-15 13:32:00,66.0,-17.0,-100.00,NW,324,11.0,18.0,3,0.00,,,0.00,828.000000,,2013-01-15 23:32:00,
2013-01-15 13:42:00,66.0,-17.0,-100.00,NW,324,11.0,18.0,3,0.00,,,0.00,828.000000,,2013-01-15 23:42:00,
2013-01-15 13:52:00,66.0,-17.0,-100.00,NW,324,11.0,18.0,3,0.00,,,0.00,828.000000,,2013-01-15 23:52:00,
2013-01-15 14:22:00,63.0,-19.0,-100.00,North,350,5.0,22.0,3,0.00,,,0.00,168.000000,,2013-01-16 00:22:00,
2013-01-15 14:32:00,63.0,-19.0,-100.00,North,350,5.0,22.0,3,0.00,,,0.00,168.000000,,2013-01-16 00:32:00,
2013-01-15 14:42:00,63.0,-19.0,-100.00,North,350,5.0,22.0,3,0.00,,,0.00,168.000000,,2013-01-16 00:42:00,
2013-01-15 14:52:00,63.0,-19.0,-100.00,North,350,5.0,22.0,3,0.00,,,0.00,168.000000,,2013-01-16 00:52:00,
2013-01-15 15:22:00,64.0,-18.0,-100.00,North,11,4.0,11.0,3,0.00,,,0.00,243.000000,,2013-01-16 01:22:00,
2013-01-15 15:33:00,64.0,-18.0,-100.00,North,11,4.0,11.0,3,0.00,,,0.00,243.000000,,2013-01-16 01:33:00,
2013-01-15 15:42:00,64.0,-18.0,-100.00,North,11,4.0,11.0,3,0.00,,,0.00,243.000000,,2013-01-16 01:42:00,
2013-01-15 15:52:00,64.0,-18.0,-100.00,North,11,4.0,11.0,3,0.00,,,0.00,243.000000,,2013-01-16 01:52:00,
2013-01-15 16:22:00,62.0,-20.0,-100.00,NNW,331,9.0,11.0,3,0.00,,,0.00,272.000000,,2013-01-16 02:22:00,
2013-01-15 16:32:00,62.0,-20.0,-100.00,NNW,331,9.0,11.0,3,0.00,,,0.00,272.000000,,2013-01-16 02:32:00,
2013-01-15 16:42:00,62.0,-20.0,-100.00,NNW,331,9.0,11.0,3,0.00,,,0.00,272.000000,,2013-01-16 02:42:00,
2013-01-15 16:52:00,62.0,-20.0,-100.00,NNW,331,9.0,11.0,3,0.00,,,0.00,272.000000,,2013-01-16 02:52:00,
2013-01-15 17:22:00,63.0,-19.0,-100.00,NW,314,4.0,15.0,3,0.00,,,0.00,155.000000,,2013-01-16 03:22:00,
2013-01-15 17:32:00,63.0,-19.0,-100.00,NW,314,4.0,15.0,3,0.00,,,0.00,155.000000,,2013-01-16 03:32:00,
2013-01-15 17:42:00,63.0,-19.0,-100.00,NW,314,4.0,15.0,3,0.00,,,0.00,155.000000,,2013-01-16 03:42:00,
2013-01-15 17:52:00,63.0,-19.0,-100.00,NW,314,4.0,15.0,3,0.00,,,0.00,155.000000,,2013-01-16 03:52:00,
2013-01-15 18:22:00,62.0,-20.0,-100.00,NNW,346,3.0,7.0,3,0.00,,,0.00,48.000000,,2013-01-16 04:22:00,
2013-01-15 18:32:00,62.0,-20.0,-100.00,NNW,346,3.0,7.0,3,0.00,,,0.00,48.000000,,2013-01-16 04:32:00,
2013-01-15 18:42:00,62.0,-20.0,-100.00,NNW,346,3.0,7.0,3,0.00,,,0.00,48.000000,,2013-01-16 04:42:00,
2013-01-15 18:52:00,62.0,-20.0,-100.00,NNW,346,3.0,7.0,3,0.00,,,0.00,48.000000,,2013-01-16 04:52:00,
2013-01-15 19:22:00,61.0,-20.0,-100.00,NNW,345,2.0,6.0,3,0.01,,,0.01,1.000000,,2013-01-16 05:22:00,
2013-01-15 19:32:00,61.0,-20.0,-100.00,NNW,345,2.0,6.0,3,0.01,,,0.01,1.000000,,2013-01-16 05:32:00,
2013-01-15 19:42:00,61.0,-20.0,-100.00,NNW,345,2.0,6.0,3,0.01,,,0.01,1.000000,,2013-01-16 05:42:00,
2013-01-15 19:52:00,61.0,-20.0,-100.00,NNW,345,2.0,6.0,3,0.01,,,0.01,1.000000,,2013-01-16 05:52:00,
2013-01-15 20:22:00,61.0,-20.0,-100.00,NNW,345,2.0,6.0,3,0.00,,,0.01,0.000000,,2013-01-16 06:22:00,
2013-01-15 20:32:00,61.0,-20.0,-100.00,NNW,345,2.0,6.0,3,0.00,,,0.01,0.000000,,2013-01-16 06:32:00,
2013-01-15 20:42:00,61.0,-20.0,-100.00,NNW,345,2.0,6.0,3,0.00,,,0.01,0.000000,,2013-01-16 06:42:00,
2013-01-15 20:52:00,61.0,-20.0,-100.00,NNW,345,2.0,6.0,3,0.00,,,0.01,0.000000,,2013-01-16 06:52:00,
2013-01-15 21:22:00,59.0,-22.0,-100.00,NNE,12,3.0,6.0,3,0.01,,,0.02,0.000000,,2013-01-16 07:22:00,
2013-01-15 21:32:00,59.0,-22.0,-100.00,NNE,12,3.0,6.0,3,0.01,,,0.02,0.000000,,2013-01-16 07:32:00,
2013-01-15 21:42:00,59.0,-22.0,-100.00,NNE,12,3.0,6.0,3,0.01,,,0.02,0.000000,,2013-01-16 07:42:00,
2013-01-15 21:52:00,59.0,-22.0,-100.00,NNE,12,3.0,6.0,3,0.01,,,0.02,0.000000,,2013-01-16 07:52:00,
2013-01-15 22:22:00,60.0,-21.0,-100.00,East,98,3.0,5.0,3,0.00,,,0.02,0.000000,,2013-01-16 08:22:00,
2013-01-15 22:32:00,60.0,-21.0,-100.00,East,98,3.0,5.0,3,0.00,,,0.02,0.000000,,2013-01-16 08:32:00,
2013-01-15 22:42:00,60.0,-21.0,-100.00,East,98,3.0,5.0,3,0.00,,,0.02,0.000000,,2013-01-16 08:42:00,
2013-01-15 22:52:00,60.0,-21.0,-100.00,East,98,3.0,5.0,3,0.00,,,0.02,0.000000,,2013-01-16 08:52:00,
2013-01-15 23:22:00,55.0,-24.0,-100.00,SE,132,3.0,7.0,3,0.00,,,0.02,0.000000,,2013-01-16 09:22:00,
2013-01-15 23:32:00,55.0,-24.0,-100.00,SE,132,3.0,7.0,3,0.00,,,0.02,0.000000,,2013-01-16 09:32:00,
2013-01-15 23:42:00,55.0,-24.0,-100.00,SE,132,3.0,7.0,3,0.00,,,0.02,0.000000,,2013-01-16 09:42:00,
2013-01-15 23:52:00,55.0,-24.0,-100.00,SE,132,3.0,7.0,3,0.00,,,0.02,0.000000,,2013-01-16 09:52:00,